STARLINK-1698 (46547 NORAD) Tracking and Keplerian Element Data

This shows tracking and keplerian element data for the satellite.

Feedback or suggestion? Click here.




ElementValue
Catalog46547
NameSTARLINK-1698
Epoch Orbit440
Epoch Day303.25001157
Epoch Year2020
RAAN330.0702
Inclination52.9995
Eccentricity0.000122
Argument of Perigee61.3665
Mean Anonmoly188.5972
Mean Motion15.62755856
Decay Rate6.735E-05
L11 46547U 20070R 20303.25001157 .00006735 00000-0 79317-4 0 9996
L22 46547 52.9995 330.0702 0001220 61.3665 188.5972 15.62755856 4402

Live tracking and technical data element details for STARLINK-1698 (NORAD 46547). STARLINK-1698 can be tracked NOW for your location showing map with azimuth and elevation plus other details from your city location.

Track the satellite on the map from your city or location and see movement details for azimuth, elevation, latitude, longitude, range, height, and movement on the map or in text.







IsCatalogInMostPopularTable: catalog: 46547, numindb: 3
Update: records affected: 1



GetName: 46547 STARLINK-1698

Hit Count: updated at: Fri, 30 Oct 2020 01:49:33 GMT